Kahului, HI

5:50 PM HST on January 16, 2018 (GMT -1000)
Kahului

Weather History for PHOG - May, 2012

Change the Weather History Date:

Saturday, May 5, 2012

  Actual Average Record
Temperature  
Mean Temperature 76 °F 75 °F  
Max Temperature 84 °F 84 °F 91 °F (2016)
Min Temperature 68 °F 66 °F 58 °F (1985)
Degree Days  
Heating Degree Days 0 0  
Month to date heating degree days 0 0  
Since 1 July heating degree days 0 0  
Cooling Degree Days 11 10  
Month to date cooling degree days 49 50  
Year to date cooling degree days 1047 976  
Growing Degree Days 26 (Base 50)    
Moisture  
Dew Point 62 °F    
Average Humidity 65    
Maximum Humidity 84    
Minimum Humidity 46    
Precipitation  
Precipitation T in 0.04 in 2.41 in (1987)
Month to date precipitation 0.17 0.18  
Year to date precipitation 3.20 8.94  
Snow  
Snow 0.00 in - - ()
Month to date snowfall 0.0  
Since 1 July snowfall 0.0  
Snow Depth 0.00 in    
Sea Level Pressure  
Sea Level Pressure 30.08 in    
Wind  
Wind Speed 15 mph (ENE)    
Max Wind Speed 26 mph    
Max Gust Speed 37 mph    
Visibility 10 miles    
Events Rain    
T = Trace of Precipitation, MM = Missing Value Source: NWS Daily Summary

Daily Weather History Graph

Daily Weather History Graph

Search for Another Location

Airport or City:

Trip Planner

Search our weather history database for the weather conditions in past years. The results will help you decide how hot, cold, wet, or windy it might be!

Date:

Astronomy

May. 05, 2012 Rise Set
Actual Time 5:52 AM HST 6:52 PM HST
Civil Twilight 5:29 AM HST 7:15 PM HST
Nautical Twilight 5:01 AM HST 7:43 PM HST
Astronomical Twilight 4:33 AM HST 8:11 PM HST
Moon 6:53 PM HST (5/5) 5:23 AM HST (5/5)
Length of Visible Light 13h 46m
Length of Day
12h 59m
Full, 100% of the Moon is Illuminated
May 5
Full
May 5
Full
May 12
Last Quarter
May 20
New
May 28
First Quarter

Hourly Weather History & Observations

Time (HST) Temp. Heat Index Dew Point Humidity Pressure Visibility Wind Dir Wind Speed Gust Speed Precip Events Conditions
12:54 AM 69.1 °F - 62.1 °F 78% 30.10 in 10.0 mi NE 8.1 mph - N/A   Partly Cloudy
1:54 AM 69.1 °F - 63.0 °F 81% 30.09 in 10.0 mi ENE 11.5 mph - 0.00 in Rain Light Rain
2:54 AM 68.0 °F - 63.0 °F 84% 30.08 in 10.0 mi ENE 13.8 mph 21.9 mph 0.00 in Rain Light Rain
3:54 AM 71.1 °F - 64.0 °F 78% 30.06 in 10.0 mi NE 11.5 mph - 0.00 in   Mostly Cloudy
4:54 AM 70.0 °F - 64.0 °F 81% 30.06 in 10.0 mi NE 13.8 mph - N/A   Mostly Cloudy
5:54 AM 70.0 °F - 64.0 °F 81% 30.08 in 10.0 mi NE 13.8 mph 20.7 mph N/A   Mostly Cloudy
6:54 AM 72.0 °F - 64.0 °F 76% 30.10 in 10.0 mi ENE 10.4 mph 16.1 mph N/A   Scattered Clouds
7:54 AM 75.0 °F - 64.0 °F 69% 30.11 in 10.0 mi East 9.2 mph - N/A   Scattered Clouds
8:54 AM 77.0 °F - 63.0 °F 62% 30.12 in 10.0 mi NE 17.3 mph 29.9 mph N/A   Scattered Clouds
9:54 AM 79.0 °F - 62.1 °F 56% 30.12 in 10.0 mi ENE 19.6 mph 31.1 mph N/A   Scattered Clouds
10:54 AM 80.1 °F 81.1 °F 61.0 °F 52% 30.11 in 10.0 mi ENE 19.6 mph 28.8 mph N/A   Scattered Clouds
11:54 AM 81.0 °F 81.7 °F 61.0 °F 50% 30.09 in 10.0 mi ENE 20.7 mph 31.1 mph N/A   Clear
12:54 PM 82.9 °F 82.8 °F 59.0 °F 44% 30.07 in 10.0 mi ENE 19.6 mph 33.4 mph N/A   Clear
1:54 PM 82.9 °F 83.3 °F 61.0 °F 47% 30.04 in 10.0 mi ENE 20.7 mph 32.2 mph N/A   Scattered Clouds
2:54 PM 81.0 °F 81.6 °F 60.1 °F 49% 30.03 in 10.0 mi ENE 19.6 mph 32.2 mph N/A   Scattered Clouds
3:54 PM 81.0 °F 81.7 °F 61.0 °F 50% 30.01 in 10.0 mi ENE 18.4 mph 34.5 mph N/A   Scattered Clouds
4:54 PM 78.1 °F - 60.1 °F 54% 30.02 in 10.0 mi ENE 18.4 mph 31.1 mph N/A   Scattered Clouds
5:54 PM 75.9 °F - 60.1 °F 58% 30.04 in 10.0 mi ENE 19.6 mph 27.6 mph N/A   Partly Cloudy
6:54 PM 73.9 °F - 57.0 °F 55% 30.06 in 10.0 mi ENE 15.0 mph 21.9 mph N/A   Clear
7:54 PM 72.0 °F - 61.0 °F 68% 30.07 in 10.0 mi ENE 13.8 mph - N/A   Clear
8:54 PM 72.0 °F - 62.1 °F 71% 30.09 in 10.0 mi ENE 17.3 mph 26.5 mph N/A   Partly Cloudy
9:54 PM 71.1 °F - 62.1 °F 73% 30.10 in 10.0 mi NE 17.3 mph - N/A   Clear
10:54 PM 70.0 °F - 61.0 °F 73% 30.10 in 10.0 mi ENE 9.2 mph - N/A   Clear
11:54 PM 70.0 °F - 61.0 °F 73% 30.09 in 10.0 mi Calm Calm - N/A   Clear